Overview Statistics Trail Chart Weather Telemetry Raw packets
 

This is the latest recevied weather packets stored in our database for station/object KD5GAT-51. If no packets are shown the sender has not sent any weather packets the latest 10 day(s).

<< 1 2 3 4 5 6 >>
Time Temp. Humidity Pressure Rain* Wind** Luminosity Snow
1788454699 37.22° C 78% 1016 hPa - - - -
1788453798 36.67° C 84% 1016 hPa - - - -
1788452898 36.11° C 90% 1016.1 hPa - - - -
1788451998 35.56° C 99% 1016.2 hPa - - - -
1788451098 35° C 100% 1016.1 hPa - - - -
1788450198 33.89° C 100% 1016.3 hPa - - - -
1788449298 33.89° C 100% 1016.2 hPa - - - -
1788448397 32.78° C 100% 1016.1 hPa - - - -
1788447497 31.11° C 100% 1016.2 hPa - - - -
1788446597 30.56° C 100% 1016.3 hPa - - - -
1788445697 30.56° C 100% 1016.2 hPa - - - -
1788444797 29.44° C 100% 1016.2 hPa - - - -
1788443897 28.33° C 100% 1016.2 hPa - - - -
1788442996 28.33° C 100% 1016.4 hPa - - - -
1788442096 27.78° C 100% 1016.3 hPa - - - -
1788441196 27.22° C 100% 1016.2 hPa - - - -
1788440296 27.22° C 100% 1016.2 hPa - - - -
1788439396 27.22° C 100% 1016.1 hPa - - - -
1788438496 26.67° C 100% 1016.1 hPa - - - -
1788437595 26.67° C 100% 1015.9 hPa - - - -
1788436695 26.67° C 100% 1015.8 hPa - - - -
1788435795 26.67° C 100% 1015.6 hPa - - - -
1788434895 27.22° C 100% 1015.6 hPa - - - -
1788433995 27.22° C 100% 1015.8 hPa - - - -
1788433095 27.22° C 100% 1015.6 hPa - - - -

* Rain since midnight (hover to see other rain measurements)
** Current wind speed in m/s (hover to see current wind gust speed)